Location: Taukkyan
(23.1052°N, 94.0030°E)
Time: 10:35:38
(UTC+00:00)

SAR-Lupe-4 - Pass Details

Date: 06 July 2020
Orbit: 481 x 485 km, 98.2° (Epoch: 21 July)

Event Time Altitude Azimuth Distance (km) Brightness Sun altitude
Rises 22:10:42 0° 172° (S) 2,531 7.0 -11.7°
Reaches altitude 10° 22:12:46 10° 174° (S) 1,654 6.0 -11.3°
Maximum altitude 22:16:18 70° 258° (WSW) 514 3.4 -10.6°
Drops below altitude 10° 22:19:51 10° 343° (NNW) 1,659 6.4 -9.9°
Sets 22:21:55 0° 345° (NNW) 2,540 7.4 -9.5°
